This is the latest recevied weather packets stored in our database for station/object DG7VM-13. If no packets are shown the sender has not sent any weather packets the latest 10 day(s).
| Time | Temp. | Humidity | Pressure | Rain* | Wind** | Luminosity | Snow |
|---|---|---|---|---|---|---|---|
| 1788692534 | 24.44° C | 43% | 1024 hPa | - | - | - | - |
| 1788692254 | 24.44° C | 43% | 1024 hPa | - | - | - | - |
| 1788691953 | 24.44° C | 46% | 1024 hPa | - | - | - | - |
| 1788691641 | 23.89° C | 44% | 1024 hPa | - | - | - | - |
| 1788691343 | 23.89° C | 44% | 1024 hPa | - | - | - | - |
| 1788691032 | 23.89° C | 45% | 1024 hPa | - | - | - | - |
| 1788690733 | 23.33° C | 46% | 1024 hPa | - | - | - | - |
| 1788690433 | 23.33° C | 51% | 1024 hPa | - | - | - | - |
| 1788690134 | 23.33° C | 54% | 1024 hPa | - | - | - | - |
| 1788689833 | 22.78° C | 55% | 1024 hPa | - | - | - | - |
| 1788689533 | 22.22° C | 60% | 1025 hPa | - | - | - | - |
| 1788689244 | 21.67° C | 60% | 1025 hPa | - | - | - | - |
| 1788688933 | 21.67° C | 61% | 1025 hPa | - | - | - | - |
| 1788688632 | 21.11° C | 61% | 1025 hPa | - | - | - | - |
| 1788688348 | 20.56° C | 64% | 1025 hPa | - | - | - | - |
| 1788688042 | 20.56° C | 64% | 1025 hPa | - | - | - | - |
| 1788687749 | 20° C | 65% | 1025 hPa | - | - | - | - |
| 1788687433 | 19.44° C | 67% | 1025 hPa | - | - | - | - |
| 1788687145 | 19.44° C | 67% | 1025 hPa | - | - | - | - |
| 1788686833 | 18.89° C | 69% | 1025 hPa | - | - | - | - |
| 1788686532 | 18.33° C | 70% | 1025 hPa | - | - | - | - |
| 1788686253 | 17.78° C | 72% | 1025 hPa | - | - | - | - |
| 1788685933 | 17.78° C | 73% | 1025 hPa | - | - | - | - |
| 1788685632 | 16.67° C | 73% | 1025 hPa | - | - | - | - |
| 1788685346 | 16.67° C | 73% | 1025 hPa | - | - | - | - |
* Rain since midnight (hover to see other rain measurements)
** Current wind speed in m/s (hover to see current wind gust speed)